Theta_e
360 360 361 360 358 359 366 364 363 367 365 358 357 354 351 351 348 344 344 347 340 347 350 349 359 366 369 372 370 369 370 365 366 372 373 373 375 359 348 348 347 346 346 347 346 347 349 349 349 349 348 348 349 351 352 351 351 351 349 349 349 348 348 345 343 344 344 345 343 344 343 345 346 347
366 364 363 361 358 362 361 359 362 368 368 361 358 355 355 354 352 351 346 348 348 349 354 354 355 367 369 366 368 368 370 362 365 371 372 372 372 350 348 349 349 347 346 344 342 344 344 344 343 342 342 343 346 350 351 349 349 347 346 347 345 345 344 341 341 342 342 342 342 341 342 343 343 343
366 366 363 365 362 364 360 362 360 367 368 365 362 359 358 355 355 355 353 347 357 353 353 356 360 361 367 366 365 366 368 366 364 371 373 374 361 352 366 354 351 348 344 342 340 339 338 337 338 340 341 343 346 347 347 345 345 343 343 343 342 341 339 338 338 340 340 340 339 339 340 340 341 341
367 366 364 366 365 366 365 364 363 365 368 367 363 361 359 360 359 358 356 353 352 361 356 357 361 363 363 369 367 368 369 370 360 373 375 376 363 371 368 360 354 349 344 341 338 336 335 335 338 340 342 344 346 347 343 342 341 339 339 338 336 336 336 334 336 338 337 337 338 337 337 337 338 337
368 368 366 366 367 368 365 364 363 361 364 367 366 365 363 359 360 358 358 354 355 362 365 360 360 363 366 361 370 367 365 367 370 367 374 377 372 368 369 369 358 349 344 339 336 337 336 336 337 340 342 343 344 344 343 338 336 334 333 332 330 331 331 332 334 335 335 335 335 335 335 335 335 335
367 368 367 366 366 369 366 364 362 362 359 360 361 365 362 361 362 362 358 357 356 356 363 365 367 365 367 361 370 368 366 365 369 369 371 368 368 367 368 367 366 349 346 339 335 337 336 336 335 336 339 339 338 337 335 333 331 331 329 327 328 328 327 329 332 333 331 332 333 333 333 333 333 333
367 366 366 364 366 366 365 366 363 362 362 361 362 362 363 363 363 365 363 359 357 357 359 365 361 362 366 365 365 368 367 369 371 372 369 365 366 369 368 366 362 351 347 342 339 337 336 335 334 334 336 335 333 332 328 327 326 326 325 325 327 326 325 326 329 330 328 329 329 330 330 330 331 330
365 363 364 362 363 365 365 365 365 365 364 364 365 364 365 366 364 366 367 365 361 360 357 362 363 363 363 364 367 368 368 367 369 369 369 370 368 366 365 365 363 357 348 345 343 340 336 333 332 330 330 328 326 325 324 325 325 325 323 323 323 323 323 323 323 326 325 325 326 326 326 327 327 326
365 364 362 361 363 366 364 363 363 363 365 365 364 362 364 365 364 366 366 366 366 362 359 360 365 368 366 367 369 368 364 365 368 372 372 366 366 369 365 363 361 354 348 349 344 342 339 335 332 330 329 328 326 325 324 324 324 323 322 321 322 323 323 323 322 323 322 323 323 322 323 324 324 325
366 364 364 363 364 363 361 360 362 365 364 365 363 363 364 364 365 365 366 367 366 365 362 362 361 366 362 363 366 368 366 363 361 363 368 371 369 369 365 363 362 363 362 363 368 344 341 335 329 330 329 327 326 326 326 325 324 321 320 317 317 319 319 320 322 322 321 321 322 321 321 322 323 325
364 364 364 365 365 364 364 362 362 364 365 362 362 364 365 365 364 363 364 365 364 363 362 362 363 362 364 364 359 366 369 367 365 362 361 362 369 370 367 365 366 364 362 359 353 356 352 347 350 323 326 326 327 328 328 326 324 323 319 318 318 318 317 318 320 320 319 319 319 318 317 317 323 326
361 362 363 362 364 365 366 365 365 365 363 365 363 364 366 365 364 362 362 363 362 361 360 359 357 359 361 363 365 367 368 365 365 368 362 358 361 364 370 367 365 367 367 365 363 350 348 344 333 323 327 329 330 329 330 331 332 325 321 320 322 321 318 318 319 319 318 317 316 315 316 316 320 324
363 362 361 361 362 367 367 364 363 363 364 364 364 366 367 365 364 363 362 362 361 361 360 359 361 360 360 361 362 360 361 360 358 363 365 362 363 366 364 368 370 368 364 366 364 364 367 365 366 361 356 352 341 339 334 336 331 327 322 321 322 322 320 318 319 319 318 317 316 315 315 317 320 323
361 361 361 360 366 362 360 358 355 350 351 354 360 364 368 366 364 363 362 361 361 360 358 356 356 355 354 354 358 359 361 363 366 363 365 363 363 365 365 366 368 368 365 364 365 365 369 366 366 365 359 354 351 352 350 344 337 329 323 322 322 321 321 319 319 318 318 317 316 315 314 316 318 318
359 361 363 363 365 365 361 360 350 349 346 347 347 350 357 363 366 363 361 361 361 359 358 357 358 355 356 357 359 359 359 362 362 362 364 362 362 360 358 355 363 369 367 365 364 365 371 372 366 366 360 353 351 349 347 332 330 325 324 322 322 321 321 321 322 320 318 317 316 316 315 316 317 317
360 359 360 362 363 365 366 366 368 358 348 343 344 344 345 348 352 354 361 362 361 362 360 358 357 356 356 358 361 358 357 362 363 366 365 364 361 360 358 358 357 368 368 363 362 362 371 373 369 367 361 355 353 346 334 327 328 325 323 323 322 322 321 321 321 320 319 319 318 317 317 317 318 317
360 362 362 361 363 362 363 364 365 369 368 349 341 342 343 344 343 339 339 345 361 362 362 361 359 359 360 360 361 363 363 366 363 363 361 364 364 363 359 359 359 366 369 363 361 360 365 370 367 365 363 355 353 342 331 328 328 325 324 323 322 321 321 320 320 319 318 318 317 315 314 313 314 315
360 363 363 362 362 365 366 366 365 366 368 369 366 361 360 361 359 346 337 336 337 348 359 360 360 364 367 362 364 367 369 365 361 360 360 364 363 361 360 364 365 367 368 360 360 358 360 366 364 363 363 356 354 354 335 324 325 325 322 322 320 320 319 319 319 318 317 317 316 314 312 311 311 311
361 362 363 363 361 364 366 366 365 365 366 367 366 366 364 364 364 365 362 360 358 358 358 360 362 364 367 368 369 369 370 369 367 366 365 365 365 364 365 364 365 364 367 365 361 354 357 365 362 362 361 356 355 353 327 323 324 323 321 321 321 319 318 318 318 317 316 316 315 313 311 310 309 309
363 363 363 363 363 363 365 360 346 354 365 365 364 363 363 363 364 363 361 347 350 362 363 363 363 363 363 353 368 368 366 367 369 368 365 363 362 360 358 356 359 360 366 368 363 358 357 365 358 360 361 356 354 353 350 324 323 322 321 322 320 318 316 316 316 316 316 316 315 314 311 308 307 309
362 363 363 364 362 363 365 353 335 336 350 362 362 362 361 361 360 360 363 345 335 336 334 333 335 334 334 333 330 329 330 352 357 362 357 357 361 358 354 355 356 358 363 366 365 359 355 361 361 359 360 357 355 353 351 345 323 320 319 319 318 317 316 315 314 314 315 315 315 314 312 309 308 311
362 363 359 363 363 362 363 343 332 331 346 360 360 361 359 359 359 360 361 359 357 332 329 329 329 330 331 331 330 330 329 328 340 357 353 357 358 355 356 352 355 357 360 361 365 359 354 359 362 359 361 356 353 353 353 350 336 321 318 316 317 317 317 316 314 315 314 314 314 314 310 308 310 332
359 361 359 357 356 358 355 336 330 328 342 359 360 361 360 357 358 359 361 361 361 364 361 359 355 351 342 347 352 354 336 334 341 354 358 359 357 355 356 356 357 353 354 362 370 359 358 358 358 359 356 352 355 354 353 348 347 344 343 338 336 317 320 318 316 313 312 313 313 313 309 308 312 333
358 359 361 357 336 333 333 331 325 324 326 355 361 361 359 358 357 361 363 364 363 365 363 364 364 364 365 365 364 363 362 355 350 352 357 360 360 359 358 358 356 353 353 363 367 361 359 360 357 362 357 351 348 350 351 349 349 348 345 341 338 323 322 322 319 314 313 313 312 312 309 308 310 330
354 357 358 359 342 327 326 325 321 320 319 332 360 362 360 361 361 357 363 363 363 362 363 363 362 362 363 364 363 362 364 362 360 355 356 359 362 362 359 357 355 355 356 364 355 365 359 358 357 359 356 354 351 347 348 349 350 347 346 341 339 338 340 336 331 334 319 313 310 310 309 309 309 318
354 355 357 361 347 326 323 322 319 316 318 319 352 362 336 334 333 360 361 362 361 361 361 360 359 361 361 360 361 360 360 360 360 363 362 361 362 363 363 360 358 356 357 374 341 365 361 358 358 356 356 349 348 347 346 345 348 347 348 342 338 341 337 337 335 335 335 333 331 321 320 312 313 311
354 357 359 361 347 326 318 317 317 317 316 320 338 329 327 327 328 341 357 359 359 359 358 358 357 358 358 359 359 359 360 362 364 363 366 367 365 364 364 364 365 363 364 369 363 366 364 360 363 358 354 354 351 351 348 347 346 347 345 338 338 339 339 336 335 332 332 331 332 317 313 311 312 313
356 357 359 356 334 322 314 313 315 316 318 333 322 319 322 325 331 350 355 354 357 356 354 353 355 356 359 360 360 360 363 362 367 368 368 368 367 367 366 367 363 366 368 369 367 366 365 361 360 361 359 356 351 348 348 349 346 343 338 339 337 338 338 336 335 334 334 334 333 332 330 328 330 329
356 342 332 330 325 322 316 314 315 317 317 316 320 319 319 329 346 350 352 355 357 353 352 353 354 356 359 362 363 366 368 368 368 367 366 366 367 367 367 366 366 366 365 366 367 366 364 362 360 360 359 356 353 353 351 347 345 342 340 337 333 334 335 338 336 334 333 333 331 330 329 328 328 328
334 331 327 325 324 324 327 337 342 346 345 321 317 320 325 340 346 350 353 355 352 353 353 353 355 357 360 362 365 367 368 365 363 363 363 362 362 362 361 361 361 364 364 366 366 366 363 362 361 362 359 356 354 353 353 346 343 342 339 332 333 337 337 336 335 336 333 333 332 331 331 330 327 326
346 345 341 345 334 335 333 334 337 339 341 341 334 334 337 343 348 350 353 355 356 354 356 356 358 359 362 365 365 363 363 361 362 364 361 360 360 361 360 359 358 359 363 365 365 364 363 363 362 362 357 355 355 354 353 348 343 342 339 336 334 330 336 336 337 335 334 333 333 332 333 332 331 328
350 353 342 340 351 352 352 350 350 351 354 353 349 348 346 346 348 349 350 353 358 359 359 359 361 360 363 360 360 359 359 359 360 362 360 358 358 357 358 356 354 356 359 361 361 362 360 362 362 361 361 356 353 354 352 348 343 342 340 338 337 335 339 336 337 339 337 335 332 333 334 330 329 329
351 353 353 354 353 352 351 351 353 353 354 354 356 356 355 353 353 353 353 353 354 356 356 356 358 359 360 359 359 357 357 358 357 360 358 359 356 358 358 354 353 352 352 353 354 355 357 358 360 360 358 358 357 355 348 342 343 344 340 340 337 335 336 336 336 338 341 336 334 332 337 333 332 330
349 350 350 352 352 353 353 352 351 352 354 355 355 356 345 354 355 354 353 354 355 358 356 358 357 357 358 359 359 358 356 355 356 357 349 356 357 353 352 351 351 352 351 352 351 350 351 353 354 353 353 351 349 353 351 345 342 343 342 340 339 336 338 340 339 342 339 337 334 330 330 334 333 330
344 349 349 350 352 352 353 353 352 353 354 355 355 356 357 356 356 352 355 355 354 354 354 357 357 357 359 357 358 355 353 354 355 356 354 353 352 351 350 348 348 347 347 345 345 349 349 347 347 345 344 344 342 346 343 350 344 343 344 342 340 337 339 340 338 340 338 337 334 331 331 331 334 332
344 347 350 351 352 352 352 352 353 354 355 356 357 357 356 356 356 356 355 356 358 356 357 357 356 356 353 353 353 352 353 350 351 351 348 346 346 347 349 348 346 346 346 345 344 347 346 345 343 340 337 337 337 338 342 338 339 345 341 339 340 341 342 343 340 341 337 335 337 334 329 329 330 335
348 349 350 351 354 354 352 354 355 355 356 356 357 358 358 357 358 359 361 360 360 358 357 357 355 353 353 351 350 347 348 348 347 348 346 346 346 345 344 345 345 346 345 347 347 348 347 344 341 338 336 335 335 336 340 347 329 329 347 340 342 343 344 342 340 337 337 337 338 334 332 332 332 335
348 350 351 351 352 354 355 355 355 355 356 358 358 359 359 360 362 364 366 363 357 354 353 353 352 352 352 349 348 348 348 348 346 345 343 345 344 343 343 343 345 345 345 347 348 347 344 342 341 340 340 338 337 338 339 344 340 333 325 342 340 342 342 341 336 335 338 339 336 337 336 332 333 336
348 349 351 352 352 354 355 355 355 356 357 357 357 358 360 361 361 364 363 359 357 354 353 352 351 350 351 351 348 347 347 346 344 342 342 343 344 343 343 343 343 347 347 346 346 347 344 343 341 342 341 340 340 340 341 340 338 342 333 320 339 342 342 339 336 336 336 338 337 339 339 340 335 318
345 349 352 353 354 355 355 357 358 357 357 358 359 360 359 357 360 362 361 356 355 353 353 351 350 345 349 349 348 348 347 347 345 345 344 343 343 343 344 345 345 346 346 344 343 344 343 343 344 344 345 348 348 344 344 343 344 345 344 330 313 332 344 341 337 336 335 337 340 336 334 336 333 336
344 347 350 353 355 356 356 356 356 357 357 358 360 350 360 361 361 361 361 359 353 352 350 351 350 350 351 350 349 347 345 344 345 346 345 346 344 344 341 337 343 345 344 341 340 339 338 341 343 332 343 345 343 343 338 336 334 338 339 341 316 311 314 321 345 340 336 343 338 333 332 332 333 335
347 348 352 354 354 356 357 357 357 357 358 358 359 359 361 361 360 346 356 351 356 355 353 351 351 349 350 351 350 345 344 344 344 345 345 344 344 342 337 339 343 342 340 336 335 336 340 342 339 338 340 342 340 335 332 334 335 337 339 341 344 318 312 312 310 312 342 342 336 332 332 333 334 331
349 350 351 352 355 356 357 357 358 359 358 360 359 360 359 359 359 357 356 354 354 353 352 351 351 350 350 350 349 348 345 344 345 345 346 345 345 341 337 338 341 342 341 339 341 341 340 339 339 338 337 337 336 335 334 336 338 337 339 340 340 340 337 316 312 311 312 311 312 324 337 336 332 328
355 352 353 354 354 355 357 358 359 363 359 355 355 357 357 357 356 357 356 354 353 353 353 353 352 351 350 350 349 348 348 346 347 347 346 344 343 342 340 339 337 340 341 342 342 342 339 337 337 338 336 335 338 338 335 336 335 336 337 338 340 339 337 337 334 318 314 315 313 312 310 311 314 313
357 357 355 355 355 356 356 359 357 351 349 348 348 348 349 352 354 355 356 354 353 352 352 351 350 350 350 349 348 345 347 339 342 345 344 341 341 340 340 340 337 338 339 341 341 340 337 335 336 339 339 340 342 339 338 336 336 335 336 338 337 337 336 336 334 333 333 335 317 308 312 312 314 313
Wind_Speed
5 5 5 4 3 2 0 1 1 1 1 1 0 1 1 1 2 4 3 3 3 2 5 4 2 3 4 4 4 3 4 5 5 5 4 5 4 6 9 9 8 9 9 9 9 8 9 8 7 6 6 6 6 5 5 4 6 6 7 7 7 7 7 8 8 8 9 9 9 9 10 12 12 13
4 4 4 4 4 2 3 2 0 1 0 0 1 1 2 1 2 2 3 3 1 2 2 3 3 3 5 4 3 3 4 3 6 5 5 5 5 8 10 8 7 8 8 8 8 8 7 7 5 5 4 4 4 3 4 5 5 6 6 6 7 7 8 9 9 9 9 9 10 10 11 12 13 13
4 4 5 4 4 3 3 2 1 1 1 1 1 1 1 2 2 2 1 4 1 1 4 3 3 4 4 5 4 4 4 3 4 5 5 5 6 9 5 5 5 6 6 6 7 7 6 5 4 5 4 4 4 4 5 5 6 6 6 7 7 8 8 8 8 9 9 10 10 10 11 12 13 14
4 4 4 4 3 3 2 3 2 1 1 1 2 2 2 2 2 2 3 4 5 2 4 4 4 4 6 4 4 5 4 2 4 5 5 5 6 4 4 2 2 3 4 5 6 5 4 3 4 4 5 4 5 5 5 5 6 6 5 6 7 8 8 8 9 9 10 10 10 11 11 13 13 13
4 5 4 4 3 2 3 3 3 3 2 2 2 2 2 3 3 3 3 5 6 4 1 3 4 4 5 5 3 6 6 6 5 6 5 5 5 5 4 5 2 4 5 5 5 3 3 4 5 5 4 5 4 5 6 7 6 5 5 6 7 7 7 6 8 9 10 10 11 11 12 12 13 13
4 4 5 5 4 3 3 3 4 4 4 4 4 3 3 3 3 3 4 4 5 7 4 3 3 4 2 5 3 5 7 7 6 7 6 5 5 5 5 5 3 7 6 6 5 3 4 5 5 5 4 4 6 7 7 6 5 5 5 6 6 6 7 7 8 10 10 11 12 12 12 12 13 13
5 5 5 6 5 3 4 4 4 4 4 4 4 5 4 4 4 3 4 4 6 7 7 4 5 4 4 5 5 5 5 5 5 6 6 6 5 4 5 5 5 6 6 6 5 2 4 5 5 5 4 5 6 7 6 5 5 5 5 6 6 6 8 8 8 9 9 11 12 13 13 14 14 14
6 7 7 7 6 5 5 5 5 4 5 4 4 5 4 4 5 4 3 5 6 6 8 6 5 5 6 5 4 4 4 5 4 5 5 5 5 6 5 5 5 4 5 4 4 3 5 5 5 5 5 6 6 6 5 5 5 5 5 6 7 7 7 8 8 9 10 11 10 12 13 14 15 14
8 7 8 8 7 6 6 6 6 5 6 5 5 5 4 5 5 4 4 5 5 6 7 7 5 4 5 5 4 3 5 5 5 4 4 4 5 4 6 5 5 3 4 5 5 4 6 6 6 5 4 5 5 4 4 4 4 4 6 6 7 7 7 7 8 9 10 10 10 12 11 13 13 13
8 8 8 8 8 8 8 7 6 6 6 5 6 6 5 5 4 5 5 5 5 6 7 7 7 5 5 5 4 3 3 6 7 6 4 4 3 3 5 6 5 4 3 3 2 7 7 9 6 5 4 4 4 3 3 3 3 5 6 6 6 6 6 7 8 9 9 10 10 11 12 13 14 14
9 9 9 8 8 9 8 8 8 7 7 6 7 6 6 5 5 6 5 5 6 6 7 7 6 6 5 4 6 2 2 5 5 6 6 5 2 1 3 6 5 4 4 2 5 2 5 4 2 5 3 3 3 2 2 3 3 5 6 6 6 6 6 7 7 8 9 10 12 13 13 13 14 14
10 10 10 10 9 10 9 9 8 7 7 6 6 6 5 5 6 6 6 6 6 6 7 7 7 6 6 5 4 4 3 4 4 3 4 7 7 5 2 3 5 4 3 5 2 7 8 7 6 5 4 3 2 3 6 5 4 4 5 5 5 6 6 6 7 8 9 11 12 13 13 12 12 13
10 10 10 10 11 10 10 10 8 7 5 6 6 6 6 6 6 6 6 6 6 6 6 7 6 6 6 5 5 5 4 4 5 4 4 6 6 5 5 2 1 2 3 4 5 5 5 5 3 4 4 4 6 5 4 5 6 4 3 4 5 6 6 6 7 8 9 11 12 13 13 13 12 13
10 11 11 10 12 10 10 11 11 11 11 10 10 7 6 6 6 7 7 7 6 6 7 7 7 7 7 6 5 6 5 5 5 6 5 6 6 5 5 4 2 1 3 4 5 6 4 4 4 3 4 3 4 2 2 4 4 3 3 4 5 5 6 7 7 8 8 10 12 13 13 13 12 12
11 10 10 10 10 11 11 11 13 12 13 13 14 13 11 8 7 7 8 8 7 7 7 7 7 7 7 7 7 7 6 5 6 6 5 6 6 5 6 7 3 3 2 4 5 6 4 3 5 4 4 3 2 2 2 5 3 1 2 3 4 5 6 7 7 8 8 9 11 12 12 12 12 11
10 11 10 9 8 9 11 10 10 12 14 15 14 15 14 13 13 12 10 8 8 8 8 7 7 7 8 7 6 7 6 5 5 5 6 5 6 6 6 6 6 1 1 5 6 7 4 4 5 5 4 3 3 2 6 6 3 2 2 2 3 4 5 6 7 8 8 8 10 11 12 13 12 11
11 9 9 9 8 8 11 10 11 9 9 14 17 15 14 14 14 14 15 14 12 9 9 9 9 8 7 8 8 7 7 5 7 6 6 6 6 6 7 6 6 4 2 5 7 8 5 4 5 6 4 4 4 5 7 5 4 3 2 2 3 4 5 6 7 8 7 8 8 11 11 11 11 11
11 11 10 10 9 9 9 9 11 10 10 8 8 10 10 10 13 15 16 16 16 14 12 11 10 9 8 9 8 8 6 7 8 7 8 7 6 7 8 8 7 6 3 6 6 8 7 5 6 6 3 5 4 4 8 8 5 4 2 2 4 5 6 6 7 7 7 7 8 9 11 12 11 10
12 12 11 11 12 10 10 9 10 11 10 9 8 9 10 10 11 11 11 12 11 11 12 13 13 12 10 9 10 9 7 8 8 8 8 8 7 7 8 8 8 8 7 7 5 6 7 4 6 7 3 5 5 4 7 7 5 4 3 2 5 6 5 6 6 7 7 7 8 9 10 12 11 10
11 12 12 11 12 12 12 11 14 12 10 9 10 10 10 10 10 10 11 12 11 11 10 11 11 11 10 8 9 8 7 7 7 7 7 8 7 6 6 7 5 6 4 7 6 6 7 6 7 8 3 4 4 5 5 10 7 6 4 3 5 6 5 4 5 6 7 8 8 9 10 11 12 11
12 12 12 12 11 12 12 12 14 15 13 11 11 11 11 10 10 10 9 13 16 15 14 13 12 11 12 12 12 12 11 9 7 7 9 9 7 6 7 7 6 6 3 5 6 6 8 6 6 8 4 4 5 5 5 6 8 7 5 4 5 5 4 3 4 5 6 7 8 9 10 11 12 11
11 13 16 15 13 13 13 14 15 16 13 12 12 12 12 12 11 10 10 8 9 17 17 16 15 15 14 14 13 13 13 10 5 8 10 9 6 8 7 8 7 7 6 6 5 7 7 6 6 7 6 2 5 6 5 5 7 7 6 5 5 4 3 2 2 3 5 6 7 8 10 12 13 5
12 12 13 18 16 14 15 16 15 16 14 13 13 13 12 12 12 11 10 10 7 6 7 8 9 9 12 11 10 11 16 13 11 10 11 9 8 8 8 7 7 9 7 4 6 5 6 6 6 5 6 7 4 4 4 5 5 5 4 5 4 4 3 3 3 3 3 3 4 6 8 11 12 4
12 12 12 13 19 20 18 16 16 17 18 14 13 12 12 12 13 11 10 9 8 8 8 8 8 9 8 8 8 9 9 10 12 12 11 10 9 8 8 8 8 10 8 3 8 6 7 6 7 5 7 8 6 3 3 4 5 4 4 3 3 6 7 8 8 7 3 3 3 3 6 7 10 5
12 12 12 12 15 21 21 19 18 17 18 17 13 13 12 13 12 8 9 9 9 9 9 8 8 8 8 8 8 8 8 8 9 10 11 10 9 8 9 9 10 11 9 5 10 6 8 7 8 5 5 5 4 1 3 4 4 5 5 4 3 3 3 1 0 2 5 8 7 4 4 4 5 5
13 13 12 12 13 18 20 20 18 18 17 19 12 14 16 15 13 11 10 9 8 7 7 8 8 7 7 8 8 8 8 8 8 9 9 10 10 10 10 10 10 10 10 3 12 7 7 8 8 8 5 4 6 6 5 5 5 5 5 4 3 3 2 1 1 0 1 2 1 3 0 3 3 3
14 12 12 12 12 15 18 19 19 18 19 14 13 18 17 16 16 11 9 9 9 9 10 10 10 10 10 9 8 8 8 8 9 9 9 9 9 10 10 11 11 11 9 6 8 7 8 10 6 8 10 7 8 8 6 7 4 5 4 5 5 4 3 1 1 1 1 1 1 4 7 9 5 7
13 12 12 11 14 15 17 18 18 18 17 13 18 19 19 18 13 7 9 9 9 10 11 12 11 11 10 9 8 8 8 9 8 8 8 9 10 10 9 10 11 10 8 7 7 7 8 10 9 8 10 10 10 10 9 6 4 5 4 5 4 3 3 2 1 1 1 2 2 2 3 3 4 1
13 12 14 13 14 14 15 17 17 15 17 20 19 19 19 15 7 9 9 10 9 12 12 12 12 11 10 9 9 8 7 6 6 7 7 8 9 9 10 10 9 8 6 6 8 10 10 10 11 10 9 10 10 10 9 8 4 5 5 5 5 4 4 3 2 1 1 1 1 2 3 3 3 2
17 14 12 15 16 15 14 10 8 8 10 17 19 17 12 7 9 9 10 10 12 14 13 12 11 10 8 8 8 7 7 7 8 7 7 7 8 8 8 8 8 9 10 9 8 9 9 8 10 9 9 9 11 11 8 7 6 5 5 5 3 4 4 4 3 2 2 1 1 1 1 1 2 3
11 12 11 10 12 12 14 14 11 12 11 10 9 8 9 10 10 10 10 11 11 11 10 10 9 9 8 7 6 7 7 8 8 8 8 8 8 7 9 9 9 9 9 11 10 9 9 8 8 10 10 10 10 11 9 7 7 5 5 5 5 5 5 5 3 2 1 1 1 1 1 2 1 1
13 13 12 13 9 8 7 8 8 9 9 10 10 9 9 10 11 12 13 11 10 11 11 10 9 8 7 8 8 8 8 9 8 7 7 8 8 8 9 9 10 10 9 9 8 7 6 7 7 9 10 10 10 8 7 6 8 7 5 5 5 4 4 4 4 3 3 1 2 1 1 2 1 1
9 10 11 11 11 11 11 11 11 10 10 10 11 11 10 9 10 10 10 11 12 12 11 12 12 10 8 9 8 8 8 8 8 9 9 8 9 8 9 9 8 7 9 9 6 6 6 5 5 8 9 11 10 9 7 8 8 7 5 5 5 5 5 5 4 4 4 3 3 2 2 2 1 0
8 10 12 13 13 12 12 12 12 12 11 11 11 11 12 10 10 11 11 11 11 10 10 10 10 9 9 9 8 7 9 10 10 9 8 7 6 8 9 9 9 6 5 4 3 5 6 8 6 6 5 2 2 4 6 8 8 7 6 5 5 5 5 5 4 5 4 3 2 3 3 3 3 2
11 11 12 13 13 13 13 13 13 12 12 11 11 11 11 11 12 11 11 11 10 10 10 10 10 9 8 9 8 10 11 10 9 7 5 7 8 9 9 9 8 7 6 5 6 6 7 8 8 6 5 5 6 7 7 7 7 7 5 5 5 6 5 5 5 5 5 4 4 3 4 3 3 4
11 12 12 12 12 12 13 13 12 12 12 11 11 11 11 11 11 12 12 11 10 10 10 10 9 9 11 12 11 11 10 9 9 8 9 8 9 11 10 9 8 8 7 7 8 6 5 6 9 7 5 7 7 11 10 12 11 7 7 7 6 5 5 5 5 4 5 5 4 4 4 3 2 3
11 11 11 12 11 11 12 12 11 11 12 11 11 11 12 12 11 11 12 11 10 10 10 9 11 11 12 11 11 10 10 9 10 9 9 9 9 9 11 10 10 9 8 7 7 6 5 5 7 7 7 8 9 11 11 5 9 9 6 8 6 6 5 5 4 5 5 5 5 5 5 4 4 2
12 11 11 12 12 12 11 11 11 11 11 11 11 11 11 12 11 10 9 10 10 11 11 13 14 12 12 11 10 11 11 10 9 9 9 9 10 10 11 11 11 11 9 6 8 7 6 7 8 9 9 11 11 12 11 6 5 7 12 8 8 6 6 5 6 6 5 5 6 5 4 5 5 3
10 11 11 11 11 11 11 11 10 11 11 11 11 11 11 11 11 10 10 10 10 12 12 13 13 12 13 13 12 11 10 10 9 10 9 9 10 10 10 11 12 10 8 8 6 6 7 8 7 7 9 12 13 11 7 6 7 4 9 17 9 7 6 6 7 6 6 6 5 3 4 4 2 4
12 12 13 12 11 10 11 10 10 11 11 11 11 11 11 11 11 10 11 11 11 12 13 13 13 12 12 12 11 11 10 12 11 10 11 10 11 12 12 12 12 11 11 9 8 7 7 6 5 6 6 6 4 4 4 3 2 3 4 9 14 10 6 6 7 6 6 5 4 4 5 4 5 4
11 12 12 12 11 11 11 11 11 11 11 11 11 10 10 10 10 11 10 10 11 13 13 13 13 14 13 12 12 11 11 11 11 11 12 11 11 11 12 10 10 10 10 8 7 7 9 10 9 11 5 2 2 3 3 6 8 7 7 7 13 18 13 6 4 5 6 4 4 5 5 5 5 3
11 12 12 11 12 12 12 12 12 12 11 10 11 10 10 10 11 12 10 12 12 12 13 13 13 12 12 11 10 10 11 12 12 11 11 12 11 10 11 10 11 10 11 10 10 11 7 6 8 7 5 5 6 8 11 11 10 10 9 7 5 8 13 13 8 4 3 2 5 5 5 4 4 6
10 11 11 11 11 11 11 11 11 11 11 9 10 11 11 12 12 12 12 14 14 14 14 12 12 11 11 10 11 11 12 12 12 12 11 11 10 9 9 11 14 14 12 10 6 4 2 5 7 7 7 8 10 10 11 10 9 9 8 8 6 5 5 8 10 9 8 7 5 4 3 4 6 9
9 11 12 11 10 11 11 11 10 5 5 7 13 13 13 13 13 13 12 13 14 13 12 10 10 12 13 11 10 11 12 12 10 10 9 9 9 9 8 8 9 10 11 9 8 4 4 5 6 7 6 8 7 9 12 10 10 10 10 8 4 5 5 5 5 5 5 8 12 11 7 4 2 3
8 8 9 9 9 10 10 10 7 7 10 11 12 11 11 9 9 10 10 12 13 13 11 12 13 13 12 9 10 11 10 8 8 7 7 8 9 8 8 8 9 10 10 10 10 8 7 7 7 7 8 8 8 10 10 10 10 9 7 5 6 5 5 6 6 6 6 5 4 2 5 5 7 7
Wind_Direction
239 242 236 251 260 243 217 277 12 39 354 323 310 252 307 5 353 358 352 27 8 51 15 8 67 357 348 346 358 4 7 21 324 345 339 340 332 1 328 318 317 320 326 328 328 324 324 329 325 315 313 315 314 322 323 337 355 1 358 359 358 350 356 355 347 345 342 338 336 332 326 321 320 319
235 247 244 236 243 222 232 226 344 81 230 281 216 213 237 257 334 353 332 339 308 343 356 352 12 342 339 337 339 1 348 58 315 345 337 339 350 331 304 303 314 323 328 331 330 332 336 334 325 324 331 341 343 350 14 26 25 23 17 18 9 4 7 3 356 350 343 337 336 330 325 325 325 322
231 238 246 236 247 244 253 263 245 94 193 227 219 204 208 226 267 295 283 308 137 294 324 343 344 328 320 330 332 342 342 10 328 328 337 335 336 296 293 294 315 326 335 340 345 347 342 333 336 353 4 17 37 50 45 43 44 36 30 23 13 8 8 358 350 351 349 349 347 343 340 337 333 329
220 230 240 237 242 240 248 249 254 238 215 228 228 200 204 217 239 244 262 276 298 242 308 320 319 322 330 310 326 336 326 330 225 335 316 326 285 297 342 325 309 354 358 1 6 355 348 359 17 12 26 43 58 63 62 48 52 42 28 21 15 9 8 4 355 359 0 356 352 352 348 343 337 331
218 222 230 239 233 228 249 249 255 259 247 219 229 219 212 230 214 230 248 283 296 295 222 289 306 324 317 324 325 327 334 336 343 324 328 324 337 337 333 328 91 72 20 20 31 10 25 35 26 25 42 65 63 69 68 66 61 53 39 32 24 13 5 356 359 7 3 357 355 353 348 343 340 338
226 219 224 235 232 206 238 251 258 257 263 255 254 225 238 248 242 210 256 274 288 301 295 297 318 303 281 312 324 328 330 334 330 330 327 334 342 343 330 327 352 77 10 20 47 22 37 41 35 40 67 76 83 83 80 78 70 57 46 39 28 17 9 2 2 6 2 358 355 351 346 340 338 338
227 227 230 240 235 216 229 234 253 258 259 268 273 274 267 270 271 224 226 265 283 298 305 305 306 314 311 306 315 319 315 310 305 311 327 332 338 331 328 330 323 73 8 8 60 43 46 52 48 66 86 87 91 91 89 84 69 57 51 43 31 20 11 6 360 359 356 354 352 348 343 338 337 339
230 236 244 249 244 233 238 246 254 253 255 252 249 252 252 253 267 263 227 238 270 287 294 299 300 310 308 303 301 308 305 301 306 309 319 311 323 332 335 332 327 13 358 339 87 69 70 71 76 85 90 95 95 97 95 79 66 57 51 42 33 21 13 5 360 355 357 351 344 343 338 335 337 340
238 238 243 250 247 237 243 247 246 248 241 245 249 255 249 244 249 245 242 248 246 265 279 291 288 290 286 286 290 298 316 316 305 297 286 318 317 319 328 330 335 299 211 237 155 135 106 93 96 95 94 100 102 100 90 73 61 57 49 41 31 20 12 3 359 1 358 350 342 343 338 338 339 340
236 239 240 240 242 244 243 249 247 244 241 240 244 246 248 250 247 246 247 243 247 258 269 278 288 275 292 301 293 295 303 314 316 313 293 263 265 310 327 342 340 343 349 343 151 158 148 117 104 104 109 108 115 112 91 78 65 51 47 38 28 20 11 4 4 2 357 354 350 346 346 346 348 350
241 240 239 236 236 241 241 244 244 239 235 235 243 238 241 246 243 249 248 240 248 255 267 273 271 280 271 271 297 282 276 287 280 297 311 309 273 262 336 332 339 344 343 195 177 11 21 73 124 120 133 126 133 142 127 118 67 50 41 31 23 20 11 6 6 2 2 2 358 354 352 351 358 357
244 244 242 242 238 236 236 238 241 240 239 234 239 232 230 234 241 252 252 249 252 257 263 269 279 279 285 274 266 272 258 279 269 246 296 308 314 317 304 308 323 337 320 319 317 158 157 141 115 157 174 179 183 201 171 106 65 52 35 24 19 15 7 6 6 8 9 9 2 356 353 352 356 0
239 243 245 245 243 235 229 229 234 243 243 245 243 234 220 225 233 242 247 249 251 255 262 269 268 269 271 274 277 276 268 276 295 302 286 285 289 297 305 296 270 300 311 310 310 314 318 307 214 215 210 172 194 155 273 129 127 66 30 27 21 9 7 6 8 9 12 9 4 357 354 352 356 2
239 240 243 246 240 232 224 224 222 225 228 228 244 248 227 222 226 233 243 245 245 251 258 263 270 274 275 280 278 280 278 279 274 278 276 284 303 300 296 296 258 199 273 304 302 300 283 272 291 216 238 179 197 241 220 37 19 54 26 29 18 12 6 8 8 11 11 9 3 358 354 350 352 356
239 241 239 242 233 222 226 228 223 223 219 221 227 236 241 241 237 241 242 244 244 248 254 260 259 264 273 275 279 277 283 279 280 283 286 289 294 296 306 309 305 180 284 292 291 285 275 249 275 267 234 200 199 212 96 119 164 89 48 29 22 14 11 9 13 12 11 8 3 358 355 351 350 353
236 238 238 235 235 232 232 236 222 215 217 220 223 228 231 231 235 239 244 251 253 248 254 254 254 264 265 271 268 274 277 279 283 278 280 274 281 288 287 288 294 277 207 293 288 284 269 253 260 264 201 186 199 96 112 161 179 169 79 48 32 29 19 16 14 13 10 8 4 355 357 355 351 350
233 234 233 235 233 238 217 225 236 236 219 211 219 226 230 234 231 231 235 239 246 257 257 258 260 251 261 264 264 262 265 274 277 282 277 274 276 283 280 277 283 287 209 284 281 287 298 266 252 271 200 178 174 148 164 176 177 174 129 79 59 44 31 19 16 12 9 5 1 358 353 351 348 345
230 228 229 231 233 233 226 221 226 230 233 230 214 217 225 232 229 225 230 234 237 241 249 255 257 253 242 253 260 261 254 256 268 277 279 281 279 280 280 288 281 276 240 262 281 287 286 273 276 273 240 172 166 200 132 166 187 184 149 89 67 55 37 24 16 11 6 1 359 360 351 347 347 339
229 229 229 231 236 236 229 221 216 225 226 227 229 230 231 230 235 232 227 223 224 224 230 238 245 251 250 253 257 260 251 251 257 266 277 283 280 281 285 275 260 258 231 234 231 273 291 289 281 276 243 175 192 187 139 179 180 193 166 93 68 61 47 29 18 11 5 0 359 357 353 344 343 335
226 227 229 231 232 234 235 218 201 214 227 231 231 232 236 239 238 237 231 226 223 229 230 231 238 245 249 250 258 267 271 269 265 268 267 270 266 261 265 269 268 256 219 199 222 260 280 282 287 289 278 181 211 189 190 158 187 185 178 106 78 70 56 40 22 15 6 4 359 352 354 347 337 330
227 226 226 226 231 232 232 220 197 206 211 232 235 237 240 242 243 242 237 210 212 221 232 241 246 253 258 258 256 258 258 253 276 280 277 265 250 254 260 268 268 264 258 231 239 265 284 283 282 282 255 203 226 211 204 167 171 189 169 129 99 78 72 63 33 23 14 8 360 353 355 349 335 305
229 226 220 223 227 231 233 218 199 199 197 221 230 234 240 241 241 242 244 245 200 211 223 229 235 240 245 248 252 254 251 234 209 233 247 255 255 261 255 265 273 279 272 263 246 268 269 279 272 278 278 194 234 230 206 177 141 160 173 149 112 103 97 111 85 42 33 19 4 359 354 354 330 324
229 230 219 215 221 227 230 220 202 195 192 218 224 229 236 241 243 242 245 245 239 199 207 223 224 236 235 237 235 236 233 218 204 221 235 253 251 252 256 262 272 278 270 258 165 236 274 272 269 251 273 271 238 200 185 184 179 181 177 168 157 131 175 170 162 130 90 44 19 13 1 3 334 350
227 227 230 214 211 220 226 222 207 197 195 212 223 228 234 239 242 243 243 244 244 241 239 251 239 240 237 227 217 224 225 206 202 214 222 232 237 239 248 253 260 271 280 264 173 247 279 278 276 214 265 285 281 158 192 198 194 185 191 182 197 171 206 209 184 166 133 148 121 73 23 14 351 358
230 228 225 233 204 207 217 221 215 203 200 209 221 225 232 234 242 249 249 243 230 249 252 250 251 250 246 244 247 242 233 225 204 204 212 224 226 227 240 252 259 269 265 246 166 247 264 271 270 252 238 234 265 271 206 209 188 197 194 197 210 172 205 174 215 164 160 177 154 137 100 29 30 8
231 230 228 226 209 198 208 215 217 212 203 208 217 228 231 236 237 240 247 259 260 253 247 248 248 248 246 246 245 243 239 235 230 222 212 208 217 220 233 242 254 267 267 169 156 219 244 257 260 261 238 218 236 223 227 208 202 198 181 199 207 184 209 172 223 154 319 2 55 15 22 175 124 118
229 227 227 228 212 195 203 208 213 213 210 204 220 229 232 234 236 235 246 253 254 252 254 257 260 258 257 249 242 238 237 238 234 233 231 218 212 219 228 237 242 252 261 255 177 226 243 262 241 239 256 242 258 256 244 254 214 161 196 201 196 186 192 218 276 320 331 297 333 271 246 181 144 161
230 227 224 223 214 206 203 207 210 212 204 209 217 223 229 234 234 235 239 239 240 247 255 254 251 250 248 242 240 237 234 239 233 231 233 231 229 229 229 226 232 243 245 241 225 218 238 257 254 228 245 253 249 246 257 237 215 183 205 182 190 177 172 194 215 259 254 270 292 329 355 356 6 353
233 229 223 221 215 212 209 209 210 212 209 213 219 219 224 226 226 224 230 236 236 246 246 247 248 250 239 236 238 240 241 240 243 237 240 240 241 246 247 245 241 235 227 225 232 239 243 249 257 255 247 247 244 248 251 258 226 206 199 194 200 169 174 178 211 221 250 272 302 319 357 350 347 335
229 233 220 217 217 218 217 208 206 208 205 210 218 221 214 213 218 220 222 224 235 241 245 242 237 232 232 234 239 237 233 236 238 235 235 232 238 242 240 228 228 233 236 228 217 232 238 239 248 253 246 244 243 251 244 236 232 229 177 205 186 143 178 175 186 184 206 263 288 304 333 342 357 325
238 234 231 227 220 226 217 214 218 221 215 200 210 213 208 213 214 214 215 219 220 225 229 232 233 232 232 237 235 227 224 233 234 227 227 230 234 227 235 232 234 229 219 230 227 219 225 219 232 246 244 246 241 240 244 234 243 223 197 193 184 226 150 170 175 191 176 222 256 208 241 248 238 267
224 229 224 226 230 225 228 219 222 223 216 211 203 204 200 207 212 218 221 224 232 234 237 244 244 240 225 227 230 231 232 235 232 221 225 235 240 233 234 232 232 228 228 221 214 201 208 231 235 239 244 245 245 234 222 232 239 234 218 186 194 210 177 193 184 167 157 207 247 233 206 254 323 353
211 219 227 228 220 220 219 223 225 221 214 214 215 213 206 204 206 208 209 215 221 225 227 234 235 231 227 232 227 228 238 240 245 245 243 237 240 240 235 236 235 222 230 225 189 176 184 205 252 271 256 249 248 239 219 232 234 236 227 203 196 205 198 193 190 166 153 192 226 232 209 206 216 321
209 214 225 225 224 222 220 224 225 224 220 217 215 216 211 212 214 211 211 218 221 216 215 221 224 230 229 232 225 227 241 249 243 237 230 235 222 232 238 232 232 226 235 255 223 184 175 172 177 225 249 272 330 265 245 244 245 227 225 219 209 214 202 182 175 161 179 203 200 249 240 201 177 183
214 222 222 224 225 225 226 225 224 222 221 220 217 218 213 213 216 215 219 219 219 218 218 220 226 226 220 229 231 239 239 237 237 228 210 222 229 233 231 229 220 211 203 209 231 210 189 179 161 177 220 231 241 239 234 255 259 237 217 217 218 225 206 188 180 175 181 186 201 238 259 240 183 176
212 220 224 225 225 223 225 227 224 221 221 219 218 218 219 218 214 212 219 213 211 213 216 220 221 225 238 237 235 233 235 233 233 227 228 222 230 236 237 233 226 218 206 203 226 227 203 182 148 159 201 226 227 239 233 207 216 247 233 228 213 218 210 186 181 182 191 203 195 217 244 256 244 169
219 221 222 228 228 225 227 226 223 221 221 221 221 219 220 222 215 211 214 206 214 215 221 226 234 231 231 230 228 225 227 226 235 234 233 233 231 229 230 230 228 224 213 203 199 221 185 174 145 156 200 231 237 236 246 144 217 240 247 239 226 209 196 186 179 205 213 213 207 212 231 249 252 221
221 221 224 225 228 229 229 228 224 221 220 221 222 221 221 223 222 214 205 203 212 226 227 228 233 230 229 222 219 226 226 226 230 231 230 231 234 232 229 231 231 227 222 206 197 187 171 183 182 186 198 227 238 241 244 192 179 213 221 229 237 217 188 190 203 214 206 200 225 217 219 232 236 236
222 224 224 227 223 223 225 224 220 223 221 220 219 220 222 224 224 221 217 208 213 221 223 225 226 225 225 224 221 220 221 217 215 219 222 226 226 230 231 233 235 231 218 211 199 186 189 199 192 188 214 230 242 249 251 227 214 192 183 202 223 227 201 206 218 220 215 202 202 203 236 254 332 83
218 222 226 227 226 219 222 220 220 221 224 223 224 225 226 227 225 222 220 216 217 218 222 224 222 222 224 224 220 219 222 219 215 212 211 214 216 218 223 225 231 229 228 216 207 199 183 163 152 179 229 274 331 354 31 2 36 147 171 203 227 235 227 197 217 220 216 218 187 205 226 201 233 178
214 218 223 222 221 220 219 223 224 224 224 223 224 224 226 231 229 227 217 212 216 219 218 221 220 221 225 222 217 216 220 221 222 220 216 215 212 207 211 206 218 221 225 213 190 175 185 184 144 112 97 2 308 288 266 246 236 230 218 207 199 220 242 269 237 217 227 172 199 228 243 243 257 223
204 215 222 218 220 224 224 224 222 223 224 219 221 222 218 222 231 227 223 216 220 221 221 222 222 222 225 223 220 213 219 224 224 220 214 215 210 204 202 201 211 208 213 211 205 214 193 130 116 124 154 188 226 230 239 236 234 238 236 224 174 201 218 237 270 319 331 233 211 225 237 237 214 245
203 218 222 221 219 221 223 224 218 217 219 217 228 223 219 221 222 217 222 231 229 225 226 224 223 219 220 217 215 210 214 221 223 220 214 208 208 188 188 198 207 213 217 227 238 240 119 132 142 152 169 191 213 219 235 235 234 242 237 223 196 169 178 196 223 238 258 282 289 290 312 300 280 275
212 214 225 222 218 217 219 222 225 196 152 191 227 223 215 214 214 212 212 227 231 228 226 225 222 218 218 213 211 211 218 224 224 224 217 202 198 190 187 189 197 206 214 216 218 190 135 155 165 158 164 209 219 230 234 235 238 237 235 233 173 167 186 168 166 184 227 240 242 247 252 252 282 58
234 220 225 224 220 225 222 217 193 181 204 222 237 241 246 242 233 222 210 221 228 225 218 220 223 221 218 209 205 213 217 207 214 219 205 200 205 200 194 189 189 202 210 211 210 198 166 170 155 160 196 209 209 226 228 232 238 236 222 203 203 204 203 176 189 196 203 188 115 177 239 241 258 263